Regional Weather Roundup
Issued by NWS

Home | Current Version | Previous Version | Text Only | Print | Product List | Glossary Off
Versions: 1 2 3 4 5 6 7 8 9 10 11 12 13 14 15 16 17 18 19 20 21 22 23 24 25 26 27 28

000
ASUS45 KSLC 301910
RWRUT

UTAH REGIONAL WEATHER ROUNDUP
NATIONAL WEATHER SERVICE SALT LAKE CITY UT
100 PM MDT FRI SEP 30 2016

UTZ001>011-023>025-302000-

NORTHERN UTAH

CITY           SKY/WX    TMP DP  RH WIND       PRES   REMARKS
BRIGHAM CITY     N/A     73  50  43 SW13      30.20F
HILL AFB       SUNNY     72  50  44 S10       30.21F
LOGAN          MOSUNNY   71  51  49 S3        30.20F
OGDEN          SUNNY     74  49  41 S15       30.19F
PROVO AIRPORT  MOSUNNY   72  52  49 VRB5      30.23F
SALT LAKE CITY MOSUNNY   75  48  38 S18       30.18F
VERNAL         MOSUNNY   65  52  62 S6        30.29F
WENDOVER       SUNNY     72  46  40 E9        30.18F
HEBER CITY     CLOUDY    61  46  59 SW5       30.28F
WEST JORDAN    PTSUNNY   72  49  44 S16       30.22F

$$

UTZ012>022-026-027-302000-

SOUTHERN/CENTRAL UTAH

CITY           SKY/WX    TMP DP  RH WIND       PRES   REMARKS
BLANDING       PTSUNNY   64  51  64 CALM      30.40F
BRYCE CANYON   PTSUNNY   58  48  69 SE10      30.40F
CEDAR CITY     PTSUNNY   73  46  38 W10       30.27F
DELTA          SUNNY     75  43  31 S10       30.21F
MILFORD        MOSUNNY   75  47  36 S16G23    30.22F
MOAB/CYNLANDS  PTSUNNY   70  53  54 SE5       30.26F
PRICE          CLOUDY    62  50  64 S3        30.33F
ST GEORGE      MOCLDY    81  52  36 E10       30.17F

$$

REGIONAL REPORTS     COLORADO/ARIZONA

CITY           SKY/WX    TMP DP  RH WIND       PRES   REMARKS
CRAIG, CO      CLOUDY    67  45  45 W12       30.31F
GRAND JUNCTION CLOUDY    66  56  70 W3        30.28F
RIFLE          CLOUDY    67  51  56 NW6       30.30F
MONTROSE       CLOUDY    66  48  52 VRB5      30.32F
CORTEZ         PTSUNNY   69  51  52 W8        30.32F
PAGE, AZ       MOSUNNY   72  56  57 N7        30.25F
GRAND CANYON   MOSUNNY   65  46  50 N9        30.38F
KINGMAN        MOSUNNY   79  49  34 SE18      30.17F
FLAGSTAFF      PTSUNNY   63  42  46 S6        30.37F

$$

REGIONAL REPORTS    NEVADA/IDAHO/WYOMING

CITY           SKY/WX    TMP DP  RH WIND       PRES   REMARKS
LAS VEGAS, NV  MOSUNNY   86  44  23 CALM      30.09F
ELY            MOSUNNY   71  39  31 S13       30.26F
ELKO           SUNNY     77  41  27 W7        30.16F
POCATELLO, ID  SUNNY     76  48  37 VRB6      30.16
BURLEY         SUNNY     74  50  42 VRB3      30.12F
EVANSTON, WY   CLOUDY    66  42  41 W8G18     30.32F
ROCK SPRINGS   MOSUNNY   67  41  38 W14       30.30F

$$




USA.gov is the U.S. government's official web portal to all federal, state and local government web resources and services.